• Em Portugal
  • Lista de países
  • Para 7 dias
  • Temperatura da água
  • Mapas de satélite
  • Mapa do tempo
  • Widgets de tempo
  • user-avatar
    Iniciar Sessão

    Previsão horária em Namibe

    Hoje, 23 Outubro, Terça-feira

    Tempo Temperatura Precipitação Vento Pressão Humidade
    00:00 +30°C° 0.1 mm 3 m/s 757 mmHg 51%
    01:00 +30°C° 0 mm 3 m/s 757 mmHg 49%
    02:00 +30°C° 0 mm 3 m/s 757 mmHg 50%
    03:00 +29°C° 0 mm 3 m/s 757 mmHg 51%
    04:00 +29°C° 0 mm 3 m/s 757 mmHg 51%
    05:00 +29°C° 0 mm 3 m/s 757 mmHg 52%
    06:00 +29°C° 0 mm 2 m/s 758 mmHg 53%
    07:00 +28°C° 0 mm 2 m/s 758 mmHg 57%
    08:00 +30°C° 0 mm 2 m/s 758 mmHg 52%
    09:00 +32°C° 0 mm 2 m/s 758 mmHg 46%
    10:00 +35°C° 0 mm 2 m/s 758 mmHg 41%
    11:00 +37°C° 0 mm 3 m/s 758 mmHg 38%
    12:00 +38°C° 0 mm 4 m/s 757 mmHg 35%
    13:00 +41°C° 0 mm 5 m/s 757 mmHg 32%
    14:00 +39°C° 0 mm 5 m/s 756 mmHg 35%
    15:00 +37°C° 0 mm 5 m/s 756 mmHg 38%
    16:00 +35°C° 0 mm 6 m/s 756 mmHg 42%
    17:00 +34°C° 0 mm 4 m/s 757 mmHg 46%
    18:00 +31°C° 0 mm 3 m/s 757 mmHg 51%
    19:00 +29°C° 0 mm 2 m/s 758 mmHg 55%
    20:00 +29°C° 0 mm 2 m/s 758 mmHg 55%
    21:00 +29°C° 0 mm 2 m/s 759 mmHg 55%
    22:00 +29°C° 0 mm 1 m/s 759 mmHg 55%
    23:00 +29°C° 0 mm 2 m/s 759 mmHg 54%

    Amanhã, 24 Outubro, Quarta-feira

    Tempo Temperatura Precipitação Vento Pressão Humidade
    00:00 +29°C° 0 mm 2 m/s 759 mmHg 54%
    01:00 +30°C° 0 mm 2 m/s 759 mmHg 53%
    02:00 +30°C° 0 mm 2 m/s 759 mmHg 53%
    03:00 +30°C° 0 mm 2 m/s 758 mmHg 54%
    04:00 +29°C° 0 mm 2 m/s 758 mmHg 54%
    05:00 +30°C° 0 mm 2 m/s 758 mmHg 53%
    06:00 +30°C° 0 mm 2 m/s 758 mmHg 53%
    07:00 +30°C° 0 mm 2 m/s 758 mmHg 53%
    08:00 +31°C° 0 mm 2 m/s 759 mmHg 50%
    09:00 +32°C° 0 mm 2 m/s 759 mmHg 47%
    10:00 +35°C° 0 mm 3 m/s 759 mmHg 43%
    11:00 +36°C° 0 mm 3 m/s 758 mmHg 41%
    12:00 +37°C° 0 mm 4 m/s 758 mmHg 38%
    13:00 +39°C° 0 mm 5 m/s 757 mmHg 35%
    14:00 +37°C° 0 mm 5 m/s 757 mmHg 37%
    15:00 +36°C° 0 mm 6 m/s 756 mmHg 39%
    16:00 +35°C° 0 mm 6 m/s 756 mmHg 41%
    17:00 +34°C° 0 mm 5 m/s 756 mmHg 45%
    18:00 +33°C° 0 mm 5 m/s 757 mmHg 48%
    19:00 +30°C° 0 mm 5 m/s 758 mmHg 52%
    20:00 +30°C° 0 mm 4 m/s 758 mmHg 52%
    21:00 +30°C° 0 mm 3 m/s 759 mmHg 51%
    22:00 +30°C° 0 mm 2 m/s 759 mmHg 51%
    23:00 +29°C° 0 mm 3 m/s 759 mmHg 52%

    Depois de amanhã, 25 Outubro, Quinta-feira

    Tempo Temperatura Precipitação Vento Pressão Humidade
    00:00 +29°C° 0 mm 3 m/s 758 mmHg 54%
    01:00 +29°C° 0 mm 3 m/s 758 mmHg 55%
    02:00 +29°C° 0 mm 3 m/s 758 mmHg 56%
    03:00 +28°C° 0 mm 3 m/s 757 mmHg 57%
    04:00 +28°C° 0 mm 3 m/s 757 mmHg 57%
    05:00 +28°C° 0 mm 2 m/s 757 mmHg 56%
    06:00 +29°C° 0 mm 2 m/s 758 mmHg 55%
    07:00 +29°C° 0 mm 2 m/s 758 mmHg 54%
    08:00 +31°C° 0 mm 2 m/s 758 mmHg 49%
    09:00 +32°C° 0 mm 2 m/s 758 mmHg 44%
    10:00 +35°C° 0 mm 2 m/s 758 mmHg 40%
    11:00 +36°C° 0 mm 3 m/s 757 mmHg 37%
    12:00 +38°C° 0 mm 4 m/s 757 mmHg 34%
    13:00 +40°C° 0 mm 5 m/s 756 mmHg 32%
    14:00 +39°C° 0 mm 6 m/s 756 mmHg 34%
    15:00 +38°C° 0 mm 6 m/s 755 mmHg 36%
    16:00 +36°C° 0 mm 6 m/s 755 mmHg 38%
    17:00 +34°C° 0 mm 5 m/s 756 mmHg 43%
    18:00 +33°C° 0 mm 5 m/s 756 mmHg 47%
    19:00 +30°C° 0 mm 4 m/s 757 mmHg 51%
    20:00 +30°C° 0.1 mm 3 m/s 758 mmHg 51%
    21:00 +30°C° 0.1 mm 3 m/s 758 mmHg 52%
    22:00 +30°C° 0.1 mm 2 m/s 759 mmHg 52%
    23:00 +30°C° 0.1 mm 2 m/s 759 mmHg 52%

    26 Outubro, Sexta-feira

    Tempo Temperatura Precipitação Vento Pressão Humidade
    00:00 +30°C° 0.1 mm 2 m/s 758 mmHg 52%
    01:00 +30°C° 0.1 mm 2 m/s 758 mmHg 52%
    02:00 +30°C° 0.1 mm 2 m/s 758 mmHg 53%
    03:00 +30°C° 0.1 mm 2 m/s 757 mmHg 54%
    04:00 +29°C° 0.1 mm 2 m/s 757 mmHg 55%
    05:00 +30°C° 0.2 mm 3 m/s 758 mmHg 55%
    06:00 +30°C° 0.2 mm 3 m/s 758 mmHg 54%
    07:00 +30°C° 0.2 mm 3 m/s 758 mmHg 54%
    08:00 +33°C° 0 mm 3 m/s 758 mmHg 49%
    09:00 +34°C° 0 mm 3 m/s 758 mmHg 44%
    10:00 +36°C° 0 mm 3 m/s 758 mmHg 39%
    11:00 +37°C° 0 mm 4 m/s 758 mmHg 37%
    12:00 +40°C° 0 mm 4 m/s 757 mmHg 34%
    13:00 +41°C° 0 mm 5 m/s 757 mmHg 32%
    14:00 +40°C° 0 mm 6 m/s 756 mmHg 34%
    15:00 +40°C° 0 mm 6 m/s 756 mmHg 36%
    16:00 +39°C° 0 mm 7 m/s 756 mmHg 38%
    17:00 +36°C° 0.1 mm 6 m/s 757 mmHg 42%
    18:00 +34°C° 0.1 mm 6 m/s 757 mmHg 47%
    19:00 +33°C° 0.1 mm 5 m/s 758 mmHg 51%
    20:00 +33°C° 0 mm 4 m/s 759 mmHg 49%
    21:00 +34°C° 0 mm 4 m/s 759 mmHg 48%
    22:00 +35°C° 0 mm 4 m/s 759 mmHg 46%
    23:00 +35°C° 0 mm 4 m/s 759 mmHg 47%

    27 Outubro, Sábado

    Tempo Temperatura Precipitação Vento Pressão Humidade
    00:00 +34°C° 0 mm 3 m/s 758 mmHg 47%
    01:00 +34°C° 0 mm 3 m/s 758 mmHg 47%
    02:00 +34°C° 0 mm 3 m/s 757 mmHg 49%
    03:00 +33°C° 0 mm 3 m/s 757 mmHg 51%
    04:00 +31°C° 0 mm 3 m/s 757 mmHg 53%
    05:00 +31°C° 0 mm 3 m/s 757 mmHg 53%
    06:00 +31°C° 0 mm 3 m/s 758 mmHg 53%
    07:00 +31°C° 0 mm 3 m/s 758 mmHg 52%
    08:00 +34°C° 0 mm 3 m/s 758 mmHg 47%
    09:00 +36°C° 0 mm 3 m/s 758 mmHg 42%
    10:00 +37°C° 0 mm 3 m/s 758 mmHg 36%
    11:00 +38°C° 0 mm 4 m/s 758 mmHg 34%
    12:00 +40°C° 0 mm 4 m/s 757 mmHg 31%
    13:00 +41°C° 0 mm 5 m/s 756 mmHg 29%
    14:00 +41°C° 0 mm 6 m/s 756 mmHg 30%
    15:00 +41°C° 0 mm 6 m/s 755 mmHg 30%
    16:00 +40°C° 0 mm 6 m/s 755 mmHg 31%
    17:00 +39°C° 0 mm 6 m/s 755 mmHg 35%
    18:00 +36°C° 0 mm 6 m/s 756 mmHg 38%
    19:00 +34°C° 0 mm 6 m/s 757 mmHg 42%
    20:00 +34°C° 0 mm 5 m/s 757 mmHg 40%
    21:00 +35°C° 0 mm 4 m/s 758 mmHg 39%
    22:00 +35°C° 0 mm 4 m/s 758 mmHg 38%
    23:00 +34°C° 0 mm 4 m/s 758 mmHg 38%

    28 Outubro, Domingo

    Tempo Temperatura Precipitação Vento Pressão Humidade
    00:00 +34°C° 0 mm 4 m/s 757 mmHg 38%
    01:00 +34°C° 0 mm 4 m/s 757 mmHg 39%
    02:00 +34°C° 0 mm 4 m/s 757 mmHg 40%
    03:00 +33°C° 0 mm 4 m/s 756 mmHg 41%
    04:00 +33°C° 0 mm 4 m/s 756 mmHg 42%
    05:00 +33°C° 0 mm 4 m/s 756 mmHg 41%
    06:00 +34°C° 0 mm 3 m/s 757 mmHg 40%
    07:00 +34°C° 0 mm 3 m/s 757 mmHg 38%
    08:00 +36°C° 0 mm 3 m/s 757 mmHg 35%
    09:00 +37°C° 0 mm 4 m/s 757 mmHg 32%
    10:00 +40°C° 0 mm 4 m/s 757 mmHg 29%
    11:00 +41°C° 0 mm 5 m/s 757 mmHg 27%
    12:00 +42°C° 0 mm 5 m/s 756 mmHg 26%
    13:00 +42°C° 0 mm 6 m/s 755 mmHg 25%
    14:00 +41°C° 0.1 mm 6 m/s 755 mmHg 27%
    15:00 +40°C° 0.1 mm 7 m/s 755 mmHg 28%
    16:00 +39°C° 0.1 mm 7 m/s 754 mmHg 30%
    17:00 +38°C° 0 mm 6 m/s 755 mmHg 32%
    18:00 +35°C° 0 mm 6 m/s 755 mmHg 34%
    19:00 +34°C° 0 mm 5 m/s 756 mmHg 36%
    20:00 +35°C° 0 mm 4 m/s 757 mmHg 34%
    21:00 +35°C° 0 mm 3 m/s 757 mmHg 33%
    22:00 +36°C° 0 mm 2 m/s 758 mmHg 31%
    23:00 +34°C° 0 mm 2 m/s 757 mmHg 38%

    29 Outubro, Segunda-feira

    Tempo Temperatura Precipitação Vento Pressão Humidade
    00:00 +31°C° 0 mm 3 m/s 757 mmHg 46%
    01:00 +30°C° 0 mm 4 m/s 757 mmHg 53%
    02:00 +29°C° 0.1 mm 3 m/s 757 mmHg 56%
    03:00 +28°C° 0.1 mm 3 m/s 757 mmHg 59%
    04:00 +28°C° 0.1 mm 2 m/s 756 mmHg 62%
    05:00 +28°C° 0.1 mm 2 m/s 757 mmHg 62%
    06:00 +28°C° 0.1 mm 2 m/s 757 mmHg 62%
    07:00 +28°C° 0.1 mm 2 m/s 758 mmHg 62%
    08:00 +30°C° 0.2 mm 2 m/s 758 mmHg 57%
    09:00 +32°C° 0.2 mm 2 m/s 758 mmHg 51%
    10:00 +34°C° 0.2 mm 2 m/s 758 mmHg 46%
    11:00 +36°C° 0 mm 3 m/s 757 mmHg 41%
    12:00 +37°C° 0 mm 4 m/s 756 mmHg 37%
    13:00 +40°C° 0 mm 5 m/s 756 mmHg 33%
    14:00 +37°C° 0 mm 5 m/s 755 mmHg 36%
    15:00 +36°C° 0 mm 5 m/s 755 mmHg 39%
    16:00 +35°C° 0 mm 5 m/s 755 mmHg 41%
    17:00 +34°C° 0.1 mm 4 m/s 755 mmHg 45%
    18:00 +31°C° 0.1 mm 3 m/s 756 mmHg 48%
    19:00 +30°C° 0.1 mm 2 m/s 756 mmHg 51%
    20:00 +30°C° 0 mm 2 m/s 756 mmHg 51%
    21:00 +30°C° 0 mm 2 m/s 757 mmHg 50%
    22:00 +30°C° 0 mm 2 m/s 757 mmHg 50%
    23:00 +30°C° 0 mm 2 m/s 756 mmHg 50%
    Mostrar mais